Theta_e
307 307 307 307 307 307 306 304 302 298 298 300 301 300 299 299 298 298 298 297 300 300 298 298 296 298 299 299 300 300 300 300 301 301 301 302 302 303
307 307 307 307 307 307 306 305 303 301 298 300 300 299 299 297 295 293 291 291 299 298 295 291 290 294 296 297 297 297 299 299 299 300 300 300 301 301
306 307 306 307 307 306 305 304 303 302 299 299 299 299 297 295 291 288 288 288 296 294 289 289 290 294 294 294 295 295 294 297 298 298 298 299 299 299
306 306 306 306 306 306 304 304 303 303 302 299 298 298 296 294 289 288 287 292 292 286 286 288 287 287 286 287 290 292 290 295 295 296 296 296 296 297
305 305 306 306 306 305 304 304 303 302 302 301 298 297 294 291 289 287 288 292 287 286 286 287 286 286 286 286 288 293 294 295 293 293 293 293 293 293
304 305 305 305 305 305 305 304 303 302 301 300 298 294 294 291 288 287 287 289 290 287 286 286 286 286 285 285 288 292 291 292 291 291 291 291 291 291
304 304 304 304 304 304 304 303 302 301 300 298 294 292 292 289 288 287 287 286 288 287 286 286 286 286 285 285 285 291 291 289 288 288 289 290 290 290
303 303 304 303 303 302 302 302 302 301 299 296 293 291 291 288 287 287 287 286 286 286 286 286 286 285 285 285 285 286 288 288 287 288 289 289 289 289
302 302 302 301 301 300 300 300 299 299 298 297 294 290 289 288 287 287 287 286 286 286 286 285 285 285 285 285 285 285 286 285 285 285 287 288 288 288
301 301 300 299 299 298 298 298 297 296 295 293 290 289 288 287 287 287 286 286 285 285 285 285 285 285 285 285 285 285 284 284 284 286 287 287 287 287
299 299 298 297 297 297 297 296 294 292 291 289 288 288 287 288 288 286 286 285 285 285 285 285 285 284 284 285 284 284 284 284 284 284 285 286 286 286
298 297 297 296 296 296 296 294 293 293 291 288 287 287 287 287 286 286 285 285 285 285 285 285 285 284 284 284 284 284 284 284 283 284 283 284 284 285
297 296 296 296 297 296 295 293 291 291 290 288 287 286 286 286 286 285 285 284 284 284 285 285 283 283 283 283 282 283 283 283 283 283 283 283 283 285
297 296 296 296 296 295 293 291 290 290 290 288 286 286 286 286 285 285 285 284 284 283 283 283 283 282 282 281 282 282 282 282 282 283 283 283 283 283
297 297 296 296 295 293 291 289 290 289 289 288 288 287 286 286 285 285 284 284 284 283 283 283 282 282 282 281 281 281 281 281 281 282 282 282 283 283
296 296 296 296 295 294 291 289 289 288 287 288 288 288 287 286 285 285 285 284 284 284 283 283 282 282 282 282 281 280 280 280 281 281 281 281 282 282
295 295 294 294 293 293 292 290 289 289 289 288 288 288 287 286 286 286 285 285 284 284 283 283 283 282 282 282 281 280 281 280 281 281 280 280 281 281
293 292 292 292 292 291 290 289 290 289 289 289 289 288 288 286 286 286 285 285 285 284 284 283 283 282 282 281 281 281 281 280 280 280 280 280 280 281
291 290 290 290 290 290 290 289 289 289 291 291 288 288 288 287 287 286 286 285 285 284 284 284 283 282 279 279 280 280 280 280 279 279 280 280 280 280
291 290 290 290 290 290 290 290 290 290 291 289 288 288 288 287 287 286 286 285 285 284 283 283 282 282 280 279 279 279 279 279 280 279 279 279 279 280
292 291 290 291 290 290 289 290 289 290 289 288 287 288 287 287 287 287 286 285 284 283 283 283 282 281 280 280 279 278 279 279 279 280 280 280 280 280
291 291 291 290 289 289 289 290 290 289 288 287 288 288 287 287 287 286 286 284 284 284 283 282 281 280 279 278 277 277 277 279 280 280 280 280 280 281
289 290 290 290 289 289 290 289 289 288 287 288 288 287 287 286 286 286 285 284 284 283 282 281 280 279 278 278 278 278 278 279 279 279 279 280 280 281
Wind_Speed
15 13 12 12 11 10 9 11 7 4 3 8 5 4 2 3 3 4 4 5 7 10 11 11 12 13 13 14 15 17 17 16 18 19 20 19 18 18
16 15 14 13 12 11 10 9 8 6 3 4 4 5 3 2 3 4 6 6 9 9 11 11 12 13 13 13 13 15 17 17 17 19 20 21 21 20
18 17 17 15 14 13 12 11 9 8 6 4 7 6 3 2 3 4 6 6 9 7 9 10 13 15 15 14 13 14 15 15 16 18 20 21 21 21
21 20 19 17 17 15 14 12 11 10 7 8 7 6 4 3 3 5 6 9 10 10 10 10 11 13 15 15 15 16 13 13 15 18 19 20 21 21
22 22 20 19 19 18 17 15 13 11 9 8 7 7 5 3 3 5 7 11 9 13 12 9 11 14 15 14 14 15 15 13 15 16 18 19 19 20
22 22 21 21 20 19 17 16 16 14 12 10 8 7 6 4 4 4 5 5 4 4 11 8 9 12 16 14 12 10 11 13 16 18 18 19 20 21
22 22 21 19 18 18 18 18 18 17 15 13 10 7 8 6 5 2 3 3 5 2 11 7 5 12 16 14 12 8 11 14 18 18 19 20 21 21
26 23 21 19 18 17 16 16 18 20 18 15 13 11 11 8 7 4 3 3 1 4 10 5 3 13 17 16 11 8 10 16 20 19 18 20 21 21
26 25 23 20 19 18 16 15 16 15 14 16 17 16 14 12 10 6 3 2 1 6 10 1 3 13 18 15 9 8 11 19 19 21 20 22 21 22
26 26 24 23 22 20 20 18 16 15 14 14 14 14 11 12 8 5 3 0 3 1 8 2 8 18 20 12 7 11 18 19 22 19 21 22 22 21
25 24 23 23 22 23 24 23 19 16 14 12 12 13 11 9 8 5 3 0 1 1 2 6 6 18 18 9 8 21 18 23 21 23 22 21 21 20
25 23 23 23 24 25 24 24 24 22 21 19 16 14 12 10 8 6 5 2 1 1 3 6 6 7 8 8 21 20 24 20 27 24 22 21 22 22
27 26 26 25 25 24 24 24 24 23 21 18 16 15 13 12 9 7 6 4 4 4 4 5 6 7 3 7 16 22 22 30 30 27 21 21 23 21
31 29 27 26 25 23 23 22 20 21 23 20 18 17 16 14 12 9 7 6 6 7 7 10 7 7 8 9 10 16 28 27 25 23 20 24 25 26
26 25 25 26 24 23 22 21 21 22 25 23 22 20 18 13 12 12 9 7 7 7 6 6 8 8 10 13 16 21 20 18 17 14 21 24 25 24
23 21 22 24 25 25 21 19 22 22 25 27 24 18 16 16 16 13 12 9 10 8 6 6 8 12 16 18 22 27 25 14 23 27 29 29 29 31
22 19 21 24 25 24 23 22 22 22 22 21 19 19 18 18 18 16 15 13 12 11 11 10 11 15 17 18 24 23 25 24 27 31 31 31 32 31
24 24 23 25 24 25 25 25 25 24 22 19 23 22 21 21 20 18 18 17 16 14 14 13 13 15 17 15 17 21 23 26 31 33 31 25 32 35
24 23 22 23 23 25 26 28 28 25 18 21 28 25 25 23 20 21 19 18 18 18 16 13 13 12 7 8 14 13 17 27 34 30 27 25 30 38
18 21 23 22 21 24 27 28 28 19 20 24 28 27 26 24 23 24 21 19 20 18 16 13 13 14 15 11 18 29 25 22 26 28 29 31 32 34
20 20 20 24 26 28 30 27 23 21 18 26 29 27 26 26 25 24 21 19 18 16 17 17 15 14 17 19 19 26 29 21 21 24 29 27 31 33
21 24 22 23 26 25 25 21 17 19 24 25 24 27 26 24 25 23 20 20 21 19 19 16 15 15 16 18 20 21 25 29 29 30 26 25 27 15
20 22 25 27 24 24 24 26 24 25 28 27 27 27 25 24 23 21 19 19 17 16 16 18 17 17 17 19 20 23 27 31 30 30 31 29 26 29
Wind_Direction
212 212 205 199 200 202 208 198 166 169 207 189 175 143 76 29 33 41 38 44 60 52 40 34 26 28 30 27 28 24 18 15 16 12 8 5 4 4
211 209 209 207 202 200 198 203 213 177 165 153 170 163 124 80 48 50 53 64 90 51 38 36 31 31 32 30 29 23 23 23 22 18 16 14 10 7
211 211 209 204 205 197 195 192 198 190 144 147 160 171 154 123 95 66 54 79 94 59 35 31 41 42 37 32 23 16 18 20 21 19 17 13 11 8
206 210 207 201 202 201 200 205 202 194 182 164 169 169 173 155 93 82 58 110 93 64 44 52 48 38 28 27 22 19 27 29 21 15 12 9 4 3
212 211 206 203 201 203 205 205 208 205 200 181 167 175 168 155 153 106 80 130 106 57 48 55 48 36 29 27 31 32 37 30 15 7 4 1 359 356
213 213 210 208 206 203 209 212 208 203 200 190 180 177 174 172 146 121 102 133 162 55 38 36 46 36 24 22 34 44 26 19 7 360 0 360 356 354
211 212 209 212 212 211 212 209 203 197 192 185 178 179 181 179 177 140 87 65 150 39 18 36 64 31 20 13 14 27 16 11 2 358 354 354 353 352
205 204 204 203 207 207 209 212 214 203 195 188 187 192 191 178 165 153 103 66 87 342 356 14 48 14 11 8 6 1 355 356 351 354 350 350 348 346
207 201 196 198 200 200 200 205 206 207 221 210 201 199 190 184 177 166 147 109 12 341 345 343 352 355 2 4 8 4 346 336 341 341 343 344 345 344
205 205 200 193 193 193 192 192 192 196 204 207 208 199 192 182 186 186 161 93 332 13 347 288 335 342 348 5 18 359 340 343 341 342 338 337 337 337
206 205 203 198 191 189 188 184 182 183 181 186 183 183 184 190 197 203 214 210 90 303 319 335 334 338 335 350 351 341 341 338 339 338 335 331 330 329
203 203 205 201 190 191 193 190 185 187 185 178 177 181 185 188 209 223 237 228 169 186 207 331 321 358 322 314 326 331 334 337 333 333 331 332 332 327
202 197 200 199 199 198 202 201 201 194 190 189 186 187 191 201 211 221 229 251 256 249 271 306 286 320 294 302 311 328 333 330 331 331 328 330 329 320
207 206 203 201 201 204 206 205 203 199 193 193 196 198 202 207 212 219 229 248 266 279 269 271 263 293 293 300 292 306 315 324 328 320 319 319 316 316
218 215 208 204 204 205 209 202 199 200 199 201 206 210 216 218 211 214 224 246 260 272 277 270 280 291 284 270 278 292 308 312 313 311 308 309 304 307
218 213 208 204 205 207 205 201 204 206 206 212 215 219 216 209 214 221 228 239 258 267 251 283 274 287 285 287 297 293 304 292 309 314 317 313 306 304
204 197 194 195 195 201 203 203 208 212 217 225 226 222 220 219 221 225 231 234 246 269 280 285 292 294 289 290 292 298 305 306 312 315 314 306 303 301
194 189 189 189 191 196 202 209 212 214 223 236 237 231 229 225 225 227 235 241 252 263 271 286 300 311 311 307 294 305 308 310 311 311 306 298 298 305
196 190 189 190 195 205 215 213 213 217 236 251 245 241 238 235 231 234 238 245 253 260 267 281 288 288 292 294 286 280 289 297 300 295 297 294 291 296
197 194 193 205 215 224 223 222 221 232 241 254 245 243 241 239 235 236 238 246 253 259 268 275 272 271 273 276 290 295 300 287 289 290 297 301 294 296
207 213 216 219 218 224 225 224 220 238 247 257 245 241 241 237 237 241 241 247 251 254 257 261 281 298 292 293 288 287 298 300 292 289 296 296 297 299
214 214 223 233 227 231 219 222 239 244 246 247 244 242 242 239 238 238 238 242 241 247 261 280 292 293 290 282 278 285 293 311 314 315 309 287 284 289
225 222 225 228 227 218 234 247 237 243 246 247 246 244 240 235 237 236 239 243 246 252 267 285 294 297 291 287 278 283 291 303 309 308 307 313 298 292